Location: Dion R Holm Powerhouse
(37.8966°N, 119.9688°W)
Time: 22:45:52
(UTC+00:00)

Cosmos 1515 - Pass Details

Date: 10 September 2024
Orbit: 430 x 435 km, 82.5° (Epoch: 06 October)

Event Time Altitude Azimuth Distance (km) Brightness Sun altitude
Rises 12:43:09 0° 169° (S) 2,393 7.0 -11.5°
Reaches altitude 10° 12:45:16 10° 161° (SSE) 1,528 6.1 -11.0°
Maximum altitude 12:48:21 36° 93° (E) 701 5.1 -10.5°
Drops below altitude 10° 12:51:27 10° 25° (NNE) 1,535 6.7 -9.9°
Sets 12:53:35 0° 17° (NNE) 2,407 7.5 -9.5°
